Location: 10033 Water Well
(34.0865°N, 106.8959°W)
Time: 15:53:31
(UTC+00:00)

CZ-2D R/B - Pass Details

Date: 13 January 2026
Orbit: 525 x 595 km, 98.0° (Epoch: 11 February)

Event Time Altitude Azimuth Distance (km) Brightness Sun altitude
Rises 00:58:32 0° 140° (SE) 2,697 6.6 -8.4°
Reaches altitude 10° 01:00:56 10° 126° (SE) 1,797 5.6 -8.9°
Maximum altitude 01:04:06 24° 71° (ENE) 1,124 4.3 -9.5°
Drops below altitude 10° 01:07:14 10° 17° (NNE) 1,783 5.6 -10.1°
Sets 01:09:36 0° 3° (N) 2,671 6.6 -10.6°
